sat.trackr.live / text

‹ back to catalog

STARLINK-5706

NORAD 55488 · 2023-015AR

PAYLOAD ACTIVE UNKNOWN

§ Identity

Operator
Country
US
Launch date
2023-02-02
Launch site
AFETR
Launch vehicle
Mass (kg)
RCS (m²)

Purposes: comms

External: N2YO · Heavens-Above · Gunter

§ Orbital elements

Epoch: 2026-05-25T01:12:12.520224Z

Period
94.27 min
Inclination
43.0031°
Eccentricity
0.0001285
Mean motion
15.27565442 rev/d
Perigee alt
482.2 km
Apogee alt
484.0 km
Semi-major
6,861.2 km
B*
1.8308e-4
RAAN
268.4804°
Arg perigee
301.7947°
Mean anomaly
58.2780°
Rev number
18,227

§ Raw data

STARLINK-57061 55488U 23015AR  26145.05014491  .00004777  00000+0  18308-3 0  99902 55488  43.0031 268.4804 0001285 301.7947  58.2780 15.27565442182273

JSON: /api/v1/satellites/55488 · /tle

For live sub-satellite position, see the globe view (requires WebGL).

§ Visibility from observer

Set your observer location to see the next 7 days of passes ≥ 10°. The values pass through the URL so the page stays shareable.

No JS? Fill the form by hand. The geolocation button needs JavaScript.